Volver al catálogo

COSMOS 1860 COOLANT

LostLEO
NORAD 50795·DEBRIS·🇷🇺 Russia

Lanzado Jun 18, 1987 desde Baikonur Cosmodrome

Loading…

Próximos Pases (próximas 24 horas)

TLE

ObsoletoSource: Space-Track

Época: Sep 15, 2022, 09:16 UTC

1 50795U 87052E   22258.38627738  .00000494  00000-0  19937-3 0  9990
2 50795  65.0089 125.8285 0012947 258.4849 277.5499 14.37206657975320

Sigue COSMOS 1860 COOLANT en tiempo real con AllMySat

Download on the App Store